Simultaneous Nadir Overpasses (SNOs) Predictions

Prediction of SNOs near equator between NOAA-19 and NPP Satellite Orbit:

Table of predicted SNOs near equator for the next 14.0 days since TLE Epoch: 3/23/2013
Index Date (NOAA-19) Time (NOAA-19) NOAA-19 Lat,Lon Date (NPP) Time (NPP) NPP Lat,Lon Distance(km) Time Diff (sec)
1 04/01/2013 18:44:09 -29.97, 97.99 04/01/2013 18:35:39 -29.79, 96.98 99.37 510
2 04/01/2013 19:35:10 29.99, -94.77 04/01/2013 19:26:27 29.77, -95.71 94.58 523
3 04/01/2013 20:26:14 -29.99, 72.47 04/01/2013 20:17:09 -29.79, 71.61 85.78 545
4 04/01/2013 21:17:14 29.95,-120.27 04/01/2013 21:07:57 29.77,-121.09 81.03 557
5 04/01/2013 22:08:18 -29.95, 46.96 04/01/2013 21:58:39 -29.80, 46.23 72.25 579
6 04/01/2013 22:59:19 29.97,-145.80 04/01/2013 22:49:28 29.83,-146.48 67.44 591
